Location: Alexandria
(38.8050°N, 77.0470°W)
Time: 03:58:11
(UTC-04:00)

ISS - Pass Details

Date: 14 February 2018
Orbit: 402 x 406 km, 51.6° (Epoch: 18 June)

Event Time Altitude Azimuth Distance (km) Brightness Sun altitude
Rises 18:34:29 0° 296° (WNW) 2,316 1.0 -10.3°
Reaches altitude 10° 18:36:52 10° 280° (W) 1,454 0.3 -10.8°
Maximum altitude 18:39:25 21° 228° (SW) 960 -1.2 -11.2°
Drops below altitude 10° 18:41:57 10° 177° (S) 1,448 -1.0 -11.7°
Sets 18:44:19 0° 160° (SSE) 2,305 -0.1 -12.2°
